Regional Weather Roundup
Issued by NWS

Home | Current Version | Previous Version | Text Only | Print | Product List | Glossary On
Versions: 1 2 3 4 5 6 7 8 9 10 11 12 13 14 15 16 17 18 19 20 21 22 23 24 25 26 27 28 29 30 31 32 33 34 35 36 37 38 39 40 41 42 43 44 45 46 47 48 49 50
000
ASUS43 KMPX 201201
RWRMN
WEATHER ROUNDUP FOR MINNESOTA
NATIONAL WEATHER SERVICE TWIN CITIES/CHANHASSEN MN
600 AM CST SAT JAN 20 2018


NOTE: "FAIR" INDICATES FEW OR NO CLOUDS BELOW 12,000 FEET WITH NO
SIGNIFICANT WEATHER AND/OR OBSTRUCTIONS TO VISIBILITY. N/A MEANS
CURRENT SKY AND/OR WEATHER CONDITIONS ARE NOT AVAILABLE.

MNZ060>063-068>070-201300-
   Twin Cities Metro

CITY           SKY/WX    TMP DP  RH WIND       PRES   REMARKS
TWIN CITIES    MOCLDY    29  28  96 SW3       29.82R
6HR MIN TEMP:  24; 6HR MAX TEMP:  35;

ST PAUL        FAIR      25  22  88 CALM      29.83S FOG
CRYSTAL        FAIR      23  20  88 CALM      29.81R
BLAINE         FAIR      27  27 100 SW3       29.81
LAKEVILLE      FAIR      25  25 100 CALM      29.81S
EDEN PRAIRIE   FAIR      29  26  89 CALM      29.80R FOG
6HR MIN TEMP:  27; 6HR MAX TEMP:  36;

SOUTH ST PAUL  FAIR      25  25  99 CALM      29.81S
LAKE ELMO      FAIR      21  19  93 CALM      29.82R
$$
MNZ001>005-007-008-013>017-022>024-027-028-201300-
   Northwest Minnesota

CITY           SKY/WX    TMP DP  RH WIND       PRES   REMARKS
BEMIDJI        FAIR      19  18  95 SW3       29.73R FOG
HALLOCK        FAIR      21  18  86 CALM      29.71R
ROSEAU         FAIR      27  21  80 CALM      29.70R
WARROAD        FAIR      27  21  80 SW5       29.69S WCI  21
CROOKSTON      FAIR      25  23  93 S3        29.75R
FOSSTON        FAIR      18  16  93 S5        29.74S WCI  11
DETROIT LAKES  FAIR      25  23  93 S5        29.77R WCI  19
MOORHEAD       FAIR      21  19  93 S6        29.78R WCI  14
PARK RAPIDS    HAZE      21  16  81 SW5       29.75R VSB 3/4 WCI  15
MAHNOMEN       FAIR      21  19  95 S8        29.74S WCI  11
$$
MNZ006-009>011-018-025>026-201300-
   North Central Minnesota

CITY           SKY/WX    TMP DP  RH WIND       PRES   REMARKS
BAUDETTE       FAIR      28  25  88 W6        29.68R WCI  22
FLAG ISLAND    FAIR      32  28  86 NW3       29.67S
INTL FALLS     FAIR      31  26  82 W6        29.68R WCI  25
6HR MIN TEMP:  30; 6HR MAX TEMP:  35;

WASKISH        FAIR      25  23  93 SW6       29.70R WCI  18
BIG FORK       FAIR      23  21  93 CALM      29.71R
LONGVILLE      FAIR      18  16  93 CALM      29.75R
GRAND RAPIDS   FAIR      22  21  96 CALM      29.74S FOG
CRANE LAKE     CLOUDY    30  28  93 S3        29.70R
ORR            FAIR      28  27  93 SW3       29.68R
COOK           MOCLDY    27  27 100 SW5       29.71R WCI  21
WALKER         FAIR      22  20  93 SW5       29.73R WCI  16
$$
MNZ012-019>021-037-201300-
   Northeast Minnesota

CITY           SKY/WX    TMP DP  RH WIND       PRES   REMARKS
DULUTH         FAIR      29  27  92 NW6       29.72R WCI  23
6HR MIN TEMP:  26; 6HR MAX TEMP:  35;

ELY            FAIR      32  28  86 SW5       29.68R WCI  27
HIBBING        FAIR      21  21 100 CALM      29.72R FOG
EVELETH        FAIR      25  23  91 W3        29.73R FOG
DULUTH HARBOR  FAIR      28  27  93 SW10      29.76S WCI  19
TWO HARBORS    FAIR      30  27  86 CALM      29.70S
SILVER BAY     MOCLDY    36  30  80 CALM      29.70R
G MARAIS ARPRT CLOUDY    32  27  80 W8        29.65R WCI  25
$$
MNZ029>031-032-039>041-046>048-054>057-064-201300-
   West Central Minnesota

CITY           SKY/WX    TMP DP  RH WIND       PRES   REMARKS
FERGUS FALLS   FAIR      21  21 100 CALM      29.79S
WHEATON        PTCLDY    32  27  80 SW3       29.83R
MORRIS         CLOUDY    30  27  86 W6        29.80R WCI  24
ALEXANDRIA     FAIR      26  24  92 W5        29.78S WCI  20
ELBOW LAKE     MOCLDY    24  23  96 SW5       29.79S FOG     WCI  18
WADENA         FAIR      23  23 100 CALM      29.77R
GLENWOOD       MOCLDY    27  27 100 SW7       29.79S WCI  19
APPLETON       CLOUDY    28  27  93 CALM      29.81S
BENSON         CLOUDY    27  25  93 CALM      29.82S
ORTONVILLE     CLOUDY    30  27  86 W5        29.81R WCI  25
MADISON        CLOUDY    34  30  86 W5        29.82R WCI  30
WILLMAR        FAIR      27  27 100 CALM      29.83R
$$
MNZ033>034-036-042>043-049>051-058-059-201300-
   Central Minnesota

CITY           SKY/WX    TMP DP  RH WIND       PRES   REMARKS
ST CLOUD       FAIR      25  25 100 CALM      29.79S
6HR MIN TEMP:  19; 6HR MAX TEMP:  32;

SAUK CENTRE      N/A     27  26  94 CALM      29.79S
PAYNESVILLE    FAIR      27  27 100 W3        29.80R
AITKIN         FOG       18  16  93 CALM      29.75R VSB 1
PINE RIVER     FAIR      25  21  86 CALM      29.79R
BRAINERD       FAIR      24  22  91 SW7       29.77R WCI  16
STAPLES        FAIR      21  21 100 CALM      29.77S
LONG PRAIRIE   FAIR      27  27 100 CALM      29.78S
LITTLE FALLS   FAIR      23  19  86 CALM      29.79S
LITCHFIELD     FAIR      30  30 100 CALM      29.81R
BUFFALO        FAIR      24  22  93 CALM      29.82R
MAPLE LAKE     FAIR      26  26  99 MISG      29.82R
HUTCHINSON     FAIR      30  28  95 W5        29.82S WCI  25
$$
MNZ037-044-045-052-053-201300-
   East Central Minnesota

CITY           SKY/WX    TMP DP  RH WIND       PRES   REMARKS
PRINCETON      FAIR      23  21  93 CALM      29.80R FOG
MORA           FAIR      19  19 100 CALM      29.81R
CAMBRIDGE      FAIR      21  19  93 CALM      29.81R
RUSH CITY      FAIR      26  25  96 CALM      29.80R
MOOSE LAKE     FAIR      23  23 100 CALM      29.75R
HINCKLEY       FAIR      19  18  93 CALM      29.79R FOG
CLOQUET        FAIR      27  25  93 W7        29.73R WCI  19
MCGREGOR       FAIR      27  25  93 CALM      29.76R
$$
MNZ071>073-080-081-089-090-097-098-201300-
   Southwest Minnesota

CITY           SKY/WX    TMP DP  RH WIND       PRES   REMARKS
MONTEVIDEO     CLOUDY    32  27  80 NW5       29.82R WCI  27
GRANITE FALLS  CLOUDY    31  29  90 W3        29.82F
CANBY          CLOUDY    31  26  82 NW5       29.82S WCI  27
MARSHALL       CLOUDY    30  26  85 W3        29.81S
REDWOOD FALLS  CLOUDY    28  26  92 SW7       29.81R WCI  21
OLIVIA         CLOUDY    30  28  93 CALM      29.80F
PIPESTONE      CLOUDY    28  27  93 NE5       29.79S WCI  23
WINDOM         CLOUDY    28  16  59 CALM      29.80F
WORTHINGTON    CLOUDY    28  25  88 CALM      29.81F
JACKSON        CLOUDY    32  28  86 N5        29.79F WCI  27
TRACY            N/A     32  28  83 W3        29.80S
SLAYTON        CLOUDY    28  25  91 NW6       29.80S WCI  21
$$
MNZ065>067-074>077-082>085-091>093-201300-
   South Central Minnesota

CITY           SKY/WX    TMP DP  RH WIND       PRES   REMARKS
MANKATO        FAIR      28  27  96 W3        29.83R
NEW ULM        CLOUDY    27  23  86 W3        29.81S
ST JAMES       CLOUDY    28  27  93 CALM      29.82S
FAIRMONT       CLOUDY    31  28  89 CALM      29.82S
FARIBAULT      FAIR      19  19 100 CALM      29.82R FOG
OWATONNA       MOCLDY    23  21  93 CALM      29.81S FOG
WASECA         FOG       23  21  93 CALM      29.83R VSB 1/2
ALBERT LEA     FAIR      28  27  93 CALM      29.81R
$$
MNZ078>079-086>088-094>096-201300-
   Southeast Minnesota

CITY           SKY/WX    TMP DP  RH WIND       PRES   REMARKS
ROCHESTER      FAIR      29  27  92 NW6       29.81R WCI  23
6HR MIN TEMP:  26; 6HR MAX TEMP:  34;

RED WING       FAIR      21  19  93 CALM      29.82R
STANTON        FAIR      20  18  91 SW5       29.81R WCI  14
DODGE CENTER   FAIR      28  27  93 NW3       29.80R
WINONA         FAIR      23  21  93 CALM      29.81R
PRESTON        FAIR      29  27  92 N7        29.80R WCI  22
$$
ABBREVIATIONS USED IN REMARKS
   TC - TEMPERATURES IN CELSIUS
  WCI - WIND CHILL INDEX
   HX - HEAT INDEX
  VSB - VISIBILITY
$$




USA.gov is the U.S. government's official web portal to all federal, state and local government web resources and services.